Location: Unspecified
(49.2170°N, 0.0000°E)
Time: 11:14:26
(UTC+00:00)

Transit 2A - Pass Details

Date: 18 June 2019
Orbit: 594 x 965 km, 66.7° (Epoch: 16 July)

Event Time Altitude Azimuth Distance (km) Brightness Sun altitude
Rises 11:25:05 0° 313° (NW) 3,434 9.1 63.2°
Reaches altitude 10° 11:28:37 10° 292° (WNW) 2,413 8.5 63.4°
Maximum altitude 11:31:45 16° 257° (WSW) 1,973 8.3 63.5°
Drops below altitude 10° 11:34:44 10° 222° (SW) 2,257 8.8 63.7°
Sets 11:37:53 0° 200° (SSW) 3,095 9.5 63.8°
